EW0680 Weather Reports


time (UTC)temp
C
wind
direction
speed
KPH
gust
KPH
rain 1hr
cm
rain 24hr
cm
rain mn
cm
humidity
%
barometer
mb
20260901143107 27 304 1.6 6.4 0.00 0.00 0.00 81 1017.2
20260901141547 26 33 0.0 6.4 0.00 0.00 0.00 82 1017.2
20260901140130 26 330 0.0 4.8 0.00 0.00 0.00 83 1017.2
20260901134537 25 313 0.0 4.8 0.00 0.00 0.00 85 1017.2
20260901133037 24 298 0.0 4.8 0.00 0.00 0.00 87 1017.4
20260901131544 23 264 0.0 0.0 0.00 0.00 0.00 88 1017.4
20260901130057 23 264 0.0 0.0 0.00 0.00 0.00 88 1017.5
20260901124601 22 264 0.0 0.0 0.00 0.00 0.00 88 1017.5
20260901124502 22 264 0.0 0.0 0.00 0.00 0.00 88 1017.5
20260901123011 22 264 0.0 0.0 0.00 0.00 0.00 88 1017.5
20260901121518 22 264 0.0 0.0 0.00 0.00 0.00 88 1017.4
20260901120023 21 264 0.0 0.0 0.00 0.00 0.00 89 1017.3
20260901114511 21 233 0.0 0.0 0.00 0.00 0.00 89 1017.2
20260901113014 21 233 0.0 0.0 0.00 0.00 0.00 88 1016.9
20260901111518 21 233 0.0 0.0 0.00 0.00 0.00 89 1016.7
20260901110017 21 233 0.0 0.0 0.00 0.00 0.00 89 1016.7
20260901104521 21 233 0.0 0.0 0.00 0.00 0.00 89 1016.7
20260901103018 21 233 0.0 0.0 0.00 0.00 0.00 89 1016.6
20260901101552 21 233 0.0 0.0 0.00 0.00 0.00 88 1016.4
20260901100032 21 233 0.0 0.0 0.00 0.00 0.00 88 1016.3
20260901094527 21 233 0.0 0.0 0.00 0.00 0.00 89 1016.3
20260901093014 21 233 0.0 0.0 0.00 0.00 0.00 89 1016.3
20260901091531 22 233 0.0 0.0 0.00 0.00 0.00 88 1016.2
20260901090026 22 233 0.0 0.0 0.00 0.00 0.00 88 1016.1
20260901084537 22 233 0.0 0.0 0.00 0.00 0.00 88 1016.1
20260901083039 22 233 0.0 0.0 0.00 0.00 0.00 88 1016.1
20260901081534 22 233 0.0 0.0 0.00 0.00 0.00 88 1016.0
20260901080136 22 233 0.0 0.0 0.00 0.00 0.00 88 1016.0
20260901074546 22 233 0.0 0.0 0.00 0.00 0.00 88 1016.0
20260901073053 22 233 0.0 0.0 0.00 0.00 0.00 88 1016.0
20260901071543 22 233 0.0 0.0 0.00 0.00 0.00 88 1016.0
20260901070042 22 233 0.0 0.0 0.00 0.00 0.00 88 1016.0
20260901064550 22 233 0.0 0.0 0.00 0.00 0.00 88 1016.1
20260901063056 22 233 0.0 0.0 0.00 0.00 0.00 88 1016.1
20260901061603 23 233 0.0 0.0 0.00 0.00 0.00 88 1016.1
20260901060036 23 233 0.0 0.0 0.00 0.00 0.00 87 1016.2
20260901054543 23 233 0.0 0.0 0.00 0.00 0.00 87 1016.2
20260901053044 23 233 0.0 0.0 0.00 0.00 0.00 88 1015.8
20260901051548 23 233 0.0 0.0 0.00 0.00 0.00 88 1015.4
20260901050050 23 296 0.0 0.0 0.00 0.00 0.00 88 1015.2
20260901044613 23 296 0.0 0.0 0.00 0.00 0.00 87 1015.6
20260901043054 23 296 0.0 0.0 0.00 0.00 0.00 87 1016.0
20260901041558 23 296 0.0 0.0 0.00 0.00 0.00 87 1016.0
20260901034550 23 296 0.0 0.0 0.00 0.00 0.00 87 1016.1
20260901033055 23 145 0.0 0.0 0.00 0.00 0.00 87 1016.2
20260901031539 23 145 0.0 0.0 0.00 0.00 0.00 87 1016.4
20260901030043 23 145 0.0 0.0 0.00 0.00 0.00 87 1016.7
20260901024559 23 145 0.0 0.0 0.00 0.00 0.00 87 1016.8
20260901023051 23 145 0.0 0.0 0.00 0.00 0.00 87 1016.7
20260901021604 23 145 0.0 0.0 0.00 0.00 0.00 87 1016.9
20260901020053 23 145 0.0 0.0 0.00 0.00 0.00 87 1016.8
20260901014556 24 145 0.0 0.0 0.00 0.00 0.00 86 1017.0
20260901013009 24 136 0.0 0.0 0.00 0.00 0.00 85 1016.7
20260901011519 24 136 0.0 0.0 0.00 0.00 0.00 85 1016.8
20260901010012 25 169 0.0 3.2 0.00 0.00 0.00 84 1016.6
20260901004518 26 169 3.2 4.8 0.00 0.00 0.00 82 1016.4
20260901003021 26 38 0.0 0.0 0.00 0.00 0.00 80 1016.3
20260901001530 27 38 0.0 0.0 0.00 0.00 0.00 78 1016.2
20260901000038 27 38 0.0 0.0 0.00 0.00 0.00 76 1016.3
20260831234538 27 38 0.0 0.0 0.00 0.00 0.00 76 1016.2
20260831233038 28 38 0.0 0.0 0.00 0.00 0.00 75 1015.9
20260831231554 28 38 0.0 0.0 0.00 0.00 0.00 74 1015.9
20260831230051 28 38 0.0 0.0 0.00 0.00 0.00 73 1015.8
20260831224540 28 38 0.0 0.0 0.00 0.00 0.00 72 1015.7
20260831223058 29 38 0.0 0.0 0.00 0.00 0.00 71 1015.6
20260831221600 30 53 0.0 0.0 0.00 0.00 0.00 70 1015.6
20260831220011 30 312 0.0 0.0 0.00 0.00 0.00 72 1015.5
20260831214512 30 286 0.0 3.2 0.00 0.00 0.00 71 1015.6
20260831213012 30 294 0.0 4.8 0.00 0.00 0.00 69 1015.4
20260831211514 30 317 1.6 6.4 0.00 0.00 0.00 66 1015.0
20260831210059 31 287 0.0 0.0 0.00 0.00 0.00 69 1015.6
20260831204554 31 351 0.0 0.0 0.00 0.00 0.00 72 1016.0
20260831203053 30 262 0.0 4.8 0.00 0.00 0.00 72 1016.4
20260831203002 30 262 0.0 4.8 0.00 0.00 0.00 75 1016.4
20260831201559 29 38 0.0 0.0 0.00 0.00 0.00 75 1016.6
20260831200041 28 296 0.0 4.8 0.00 0.00 0.00 74 1016.8
20260831194545 29 269 0.0 0.0 0.00 0.00 0.00 74 1017.0
20260831193049 29 121 0.0 4.8 0.00 0.00 0.00 75 1017.4
20260831191551 30 330 0.0 3.2 0.00 0.00 0.00 74 1017.6
20260831190059 30 72 0.0 4.8 0.00 0.00 0.00 75 1017.9
20260831184559 29 306 0.0 6.4 0.00 0.00 0.00 76 1017.8
20260831183008 30 102 0.0 0.0 0.00 0.00 0.00 76 1018.0
20260831181511 29 290 1.6 4.8 0.00 0.00 0.00 78 1018.1
20260831180017 28 302 0.0 0.0 0.00 0.00 0.00 78 1018.3
20260831174521 28 302 0.0 0.0 0.00 0.00 0.00 77 1018.3
20260831173035 28 267 0.0 0.0 0.00 0.00 0.00 77 1018.5
20260831171529 28 60 0.0 0.0 0.00 0.00 0.00 76 1018.5
20260831170041 30 42 0.0 4.8 0.00 0.00 0.00 75 1018.5
20260831164545 29 240 3.2 14.5 0.00 0.00 0.00 75 1018.5
20260831163053 29 284 0.0 4.8 0.00 0.00 0.00 76 1018.7
20260831161600 28 307 0.0 14.5 0.00 0.00 0.00 77 1018.6
20260831160003 28 291 0.0 4.8 0.00 0.00 0.00 77 1018.6
20260831154507 29 308 0.0 3.2 0.00 0.00 0.00 77 1018.6
20260831153011 29 298 1.6 6.4 0.00 0.00 0.00 77 1018.6
20260831151510 28 330 0.0 6.4 0.00 0.00 0.00 76 1018.5
20260831150051 28 272 0.0 11.3 0.00 0.00 0.00 77 1018.5
20260831144553 27 300 0.0 6.4 0.00 0.00 0.00 80 1018.3